Location: Gorze? G�rny
(49.8500°N, 19.5000°E)
Time: 05:20:08
(UTC+00:00)

CZ-2D R/B - Pass Details

Date: 13 May 2021
Orbit: 791 x 846 km, 98.7° (Epoch: 20 June)

Event Time Altitude Azimuth Distance (km) Brightness Sun altitude
Rises 23:37:35 0° 21° (NNE) 3,393 6.9 -20.3°
Reaches altitude 10° 23:40:10 10° 30° (NNE) 2,447 5.7 -20.2°
Maximum altitude 23:45:07 35° 96° (E) 1,304 3.2 -19.9°
Enters shadow 23:47:50 22° 146° (SE) 1,726 3.5 -19.8°
